Terminal Aerodrome Forecast
Issued by NWS

Home | Current Version | Previous Version | Text Only | Print | Product List | Glossary On
Versions: 1 2 3 4 5 6 7 8 9 10 11 12 13 14 15 16
000
FTPA31 PHFO 192340
TAFHOG
TAF
PHOG 192340Z 2000/2024 04020KT P6SM SCT030 BKN045
     FM200400 04018G24KT P6SM FEW025 SCT040
      AMD LTD TO VIS AND WIND 2009/2016=

USA.gov is the U.S. government's official web portal to all federal, state and local government web resources and services.